Temp
6 6 6 6 6 5 5 5 5 5 5 5 4 4 4 4 4 4 4 4 4 4 4 4 3 3 3 3 3 3 2 2 2 2 2 1 1 0 0 1 0 0
6 6 6 5 5 5 5 5 5 5 5 5 4 4 4 4 4 4 4 4 4 3 3 3 3 3 3 3 3 2 2 2 2 2 2 1 1 0 0 0 0 0
6 6 6 6 5 5 5 5 5 5 5 5 5 4 4 4 4 4 4 4 3 3 3 3 3 3 3 2 2 2 2 2 2 2 2 1 1 1 0 0 -0 0
6 6 6 6 6 5 5 5 5 5 5 5 4 4 4 4 4 4 4 4 3 3 3 3 3 3 3 2 2 2 2 2 2 1 1 1 1 0 0 0 -0 -0
6 6 6 6 6 5 5 5 5 5 5 5 4 4 4 4 4 4 4 3 3 3 3 3 3 3 3 3 2 2 2 2 2 1 1 1 1 0 0 0 -0 -0
6 6 6 6 6 6 6 5 5 5 5 5 5 5 5 4 4 4 4 3 3 3 3 3 3 3 3 3 3 2 2 2 2 1 1 1 1 0 0 -0 -0 -1
6 6 6 6 6 6 6 6 6 5 5 5 5 5 5 4 4 4 4 3 3 3 3 3 3 3 3 3 2 2 1 2 1 1 1 1 0 0 0 -0 -0 -1
6 6 6 6 6 6 6 5 5 5 5 5 5 5 4 4 4 4 3 3 3 3 3 3 2 3 3 2 2 2 1 1 1 1 1 0 0 0 0 -0 -0 -0
6 6 6 6 6 6 5 5 5 5 5 5 5 4 4 4 4 3 3 3 3 3 3 2 2 2 2 2 2 1 1 1 0 0 0 0 0 0 -0 -0 -0 -0
6 6 6 6 6 5 5 5 5 5 5 5 4 4 4 4 4 3 3 3 3 2 2 2 2 2 2 1 1 1 1 0 0 0 -0 -0 -0 -0 -0 -0 -0 -0
6 6 6 6 5 5 5 5 5 5 4 4 4 4 4 4 3 3 3 2 2 2 2 2 2 1 1 1 1 1 0 0 0 -0 -0 -1 -0 -0 -1 -1 -1 -1
6 6 6 6 5 5 5 5 5 5 4 4 4 4 4 3 3 3 3 2 2 2 2 2 1 1 1 1 0 0 0 0 0 -0 -0 -1 -1 -1 -1 -1 -1 -1
6 6 6 5 5 5 5 5 5 5 4 4 4 4 4 3 3 3 2 2 2 2 2 1 1 1 1 1 0 0 0 -0 -0 -0 -0 -1 -1 -1 -2 -2 -1 -1
6 6 5 5 5 5 5 5 5 5 4 4 4 4 4 3 3 3 2 2 2 2 2 1 1 1 1 0 0 0 -0 -0 -0 -1 -1 -1 -1 -1 -2 -2 -2 -2
6 5 5 5 5 5 5 5 5 5 5 5 4 4 4 3 3 2 2 2 2 2 2 1 1 1 1 0 1 1 0 -0 -1 -1 -1 -1 -1 -1 -2 -2 -2 -2
5 5 5 5 5 5 5 5 5 5 5 5 5 4 3 3 3 3 2 2 2 2 2 2 1 1 0 0 1 0 0 -0 -1 -1 -1 -1 -1 -1 -2 -2 -2 -2
5 5 5 5 5 5 5 5 5 5 5 5 4 4 3 3 3 3 3 2 2 2 2 2 1 1 0 0 0 0 0 -0 -1 -1 -1 -1 -1 -1 -2 -2 -2 -2
5 5 5 5 5 5 5 5 5 5 5 5 4 4 4 4 3 3 3 2 2 2 2 2 1 1 0 -0 0 0 -0 -0 -1 -1 -1 -1 -1 -1 -2 -2 -2 -2
5 5 5 5 5 5 5 5 5 4 4 4 4 4 3 3 3 3 3 2 2 2 2 2 1 1 0 -0 0 -0 -0 -0 -1 -1 -1 -1 -1 -1 -2 -2 -2 -2
5 5 5 5 5 5 5 4 4 4 4 3 3 3 3 3 3 2 2 2 2 2 2 2 1 1 0 0 -0 -0 -0 -0 -1 -1 -1 -1 -1 -1 -2 -2 -2 -2
5 5 4 4 4 5 5 4 4 4 4 4 3 3 3 3 3 2 2 2 2 2 2 1 1 1 1 0 -0 -0 -0 -0 -1 -1 -1 -1 -1 -1 -2 -2 -2 -2
5 4 4 4 5 5 5 4 4 4 4 4 4 3 3 3 2 2 2 2 2 2 1 1 1 1 1 0 0 -0 -0 -1 -1 -1 -1 -1 -1 -1 -2 -2 -3 -3
4 5 5 5 5 5 5 4 4 4 4 4 3 3 3 2 2 2 2 2 2 2 2 1 1 1 1 0 0 -0 -0 -1 -1 -1 -1 -1 -1 -1 -2 -2 -3 -3
5 5 5 5 5 5 4 4 4 4 4 3 3 3 3 3 2 2 2 2 2 2 2 2 1 1 0 -0 -0 -0 -1 -1 -1 -1 -1 -1 -1 -1 -2 -3 -3 -3
5 5 5 5 5 5 4 4 4 4 4 4 3 3 3 3 2 2 2 2 2 2 2 2 1 -0 -1 -1 -1 -1 -1 -1 -1 -2 -2 -2 -2 -2 -2 -2 -3 -3
5 5 5 5 4 4 4 4 4 4 4 3 3 3 3 2 2 2 2 2 2 2 1 1 1 -0 -1 -1 -1 -1 -1 -1 -1 -2 -2 -2 -2 -2 -2 -3 -3 -3
Height
3108 3107 3106 3106 3105 3104 3104 3102 3101 3100 3099 3098 3097 3095 3094 3093 3091 3090 3088 3086 3084 3082 3080 3078 3076 3073 3071 3069 3067 3065 3062 3060 3057 3055 3052 3049 3047 3044 3042 3039 3037 3035
3107 3107 3106 3105 3105 3104 3103 3101 3100 3099 3098 3097 3095 3094 3093 3091 3090 3088 3086 3084 3082 3080 3078 3075 3073 3071 3069 3066 3064 3062 3060 3058 3055 3053 3050 3047 3045 3042 3040 3038 3035 3033
3107 3106 3105 3105 3104 3103 3102 3101 3099 3098 3096 3095 3094 3093 3091 3090 3088 3086 3084 3082 3080 3078 3075 3073 3071 3069 3067 3064 3062 3059 3058 3056 3053 3051 3048 3045 3043 3041 3039 3036 3034 3031
3106 3106 3105 3104 3103 3102 3101 3100 3098 3097 3095 3094 3092 3091 3089 3088 3086 3084 3082 3080 3078 3076 3074 3071 3069 3067 3065 3062 3060 3057 3055 3054 3051 3049 3046 3044 3042 3039 3037 3035 3032 3030
3106 3105 3104 3103 3102 3101 3100 3098 3097 3095 3094 3092 3091 3089 3087 3086 3084 3082 3080 3078 3076 3074 3072 3069 3067 3065 3063 3060 3057 3055 3053 3051 3049 3047 3045 3042 3040 3038 3035 3033 3031 3028
3105 3104 3103 3102 3101 3100 3098 3097 3095 3094 3092 3091 3089 3087 3085 3084 3082 3080 3078 3076 3074 3071 3069 3067 3064 3062 3060 3058 3055 3053 3051 3049 3046 3045 3043 3040 3038 3036 3034 3032 3029 3026
3104 3103 3102 3101 3100 3098 3097 3095 3094 3092 3090 3089 3087 3085 3083 3081 3079 3077 3075 3073 3071 3069 3067 3065 3062 3059 3058 3056 3053 3051 3049 3046 3044 3042 3040 3038 3036 3034 3032 3030 3027 3025
3103 3102 3101 3100 3098 3097 3095 3094 3092 3090 3088 3087 3085 3083 3081 3079 3077 3075 3073 3071 3069 3066 3064 3062 3059 3057 3056 3054 3051 3049 3046 3043 3041 3040 3038 3036 3034 3032 3030 3027 3025 3023
3102 3101 3100 3098 3097 3095 3094 3092 3090 3088 3086 3084 3083 3081 3079 3077 3074 3072 3070 3068 3066 3064 3061 3059 3057 3055 3053 3051 3049 3046 3044 3041 3039 3037 3035 3034 3032 3030 3027 3025 3023 3021
3101 3100 3098 3097 3095 3094 3092 3090 3088 3086 3084 3082 3080 3078 3076 3074 3072 3069 3067 3065 3063 3061 3059 3057 3054 3052 3050 3048 3046 3043 3041 3039 3036 3034 3032 3031 3029 3027 3025 3023 3021 3019
3100 3098 3096 3095 3093 3092 3090 3088 3086 3084 3082 3080 3078 3076 3073 3071 3069 3067 3064 3062 3060 3058 3056 3054 3052 3049 3047 3045 3043 3040 3038 3036 3034 3031 3030 3028 3026 3024 3023 3021 3019 3017
3098 3096 3094 3093 3092 3090 3088 3086 3084 3082 3080 3078 3076 3074 3071 3069 3067 3064 3061 3059 3057 3055 3053 3051 3049 3047 3044 3042 3040 3037 3035 3032 3031 3029 3027 3025 3023 3021 3020 3018 3016 3014
3095 3094 3092 3091 3090 3088 3086 3084 3082 3080 3078 3076 3074 3071 3069 3066 3064 3061 3059 3056 3054 3052 3050 3048 3046 3044 3041 3039 3037 3034 3032 3030 3027 3026 3024 3023 3021 3019 3017 3016 3014 3012
3093 3092 3090 3089 3087 3086 3084 3082 3079 3077 3074 3072 3070 3067 3065 3063 3060 3058 3056 3053 3051 3049 3047 3045 3043 3041 3038 3036 3034 3032 3030 3027 3025 3022 3021 3021 3020 3018 3015 3013 3012 3010
3091 3090 3088 3087 3085 3083 3081 3078 3076 3073 3071 3068 3066 3064 3061 3059 3057 3055 3053 3051 3048 3046 3044 3042 3040 3037 3035 3034 3032 3030 3028 3025 3022 3020 3019 3019 3018 3016 3013 3011 3010 3008
3089 3087 3086 3084 3082 3080 3078 3075 3073 3070 3068 3066 3063 3061 3059 3056 3054 3052 3050 3047 3045 3042 3040 3038 3036 3034 3033 3031 3030 3028 3026 3023 3020 3018 3017 3017 3015 3013 3011 3009 3008 3006
3087 3085 3083 3081 3079 3077 3074 3072 3070 3067 3065 3062 3060 3058 3056 3053 3051 3049 3047 3044 3041 3039 3036 3034 3033 3031 3030 3028 3027 3025 3023 3021 3018 3017 3015 3014 3013 3011 3009 3007 3006 3004
3085 3083 3081 3079 3076 3074 3071 3068 3066 3063 3061 3058 3056 3054 3052 3050 3047 3045 3043 3040 3038 3035 3033 3031 3029 3027 3026 3025 3024 3022 3020 3019 3016 3015 3013 3012 3010 3009 3007 3005 3003 3002
3083 3081 3079 3076 3074 3071 3068 3065 3062 3060 3057 3055 3052 3050 3048 3046 3043 3041 3039 3036 3034 3032 3029 3027 3025 3024 3022 3021 3020 3019 3017 3016 3014 3012 3011 3009 3008 3007 3005 3003 3001 3000
3082 3079 3076 3073 3070 3067 3065 3062 3060 3057 3055 3052 3049 3046 3044 3041 3039 3037 3034 3032 3030 3028 3026 3024 3022 3021 3019 3018 3017 3016 3014 3014 3012 3010 3009 3007 3006 3004 3003 3001 3000 2998
3079 3076 3073 3070 3067 3065 3063 3060 3058 3055 3052 3050 3047 3044 3041 3038 3035 3033 3031 3029 3027 3025 3023 3021 3019 3018 3016 3015 3014 3013 3012 3012 3010 3008 3007 3005 3004 3002 3001 2999 2998 2997
3076 3073 3071 3068 3066 3063 3061 3059 3056 3053 3050 3047 3045 3041 3038 3036 3033 3031 3028 3026 3025 3022 3020 3018 3016 3015 3013 3012 3011 3010 3010 3009 3007 3005 3004 3003 3001 3000 2998 2997 2996 2995
3073 3071 3069 3066 3064 3061 3059 3056 3053 3051 3048 3045 3042 3039 3036 3033 3031 3028 3026 3023 3022 3020 3018 3015 3014 3012 3011 3010 3008 3007 3007 3006 3004 3002 3001 3001 3000 2998 2997 2995 2995 2994
3071 3069 3067 3064 3061 3058 3056 3053 3050 3048 3045 3042 3039 3036 3033 3031 3028 3025 3023 3020 3019 3017 3015 3013 3011 3009 3008 3007 3005 3004 3004 3003 3001 3000 2999 2998 2998 2997 2995 2994 2993 2992
3069 3066 3064 3061 3058 3055 3052 3049 3047 3044 3042 3039 3036 3034 3031 3028 3026 3023 3021 3018 3016 3014 3012 3010 3008 3006 3005 3004 3003 3002 3001 3000 2999 2998 2997 2996 2996 2994 2993 2992 2992 2991
3066 3063 3061 3058 3055 3052 3049 3046 3044 3041 3039 3037 3034 3031 3029 3026 3023 3021 3018 3015 3013 3011 3009 3007 3006 3004 3002 3000 2999 2998 2998 2997 2997 2996 2995 2994 2993 2992 2991 2990 2989 2989
Wind_Speed
6 6 7 7 8 9 9 9 10 10 11 12 13 14 15 15 16 17 17 18 19 20 21 22 23 23 23 24 24 23 23 23 24 26 28 26 24 23 23 24 25 24
5 6 7 8 8 9 10 11 11 11 12 13 13 14 15 16 17 18 19 20 21 22 22 23 24 24 25 25 25 24 23 22 23 25 27 25 22 22 22 23 24 23
6 7 7 8 9 9 10 11 12 13 13 14 15 15 16 17 18 20 21 22 22 23 23 24 25 25 26 25 25 24 23 22 23 24 26 24 22 21 21 21 23 23
8 8 8 9 10 11 11 12 12 13 14 15 16 17 18 18 19 20 21 22 23 23 24 24 25 25 26 25 25 25 24 24 23 23 24 24 22 22 21 20 22 22
10 10 10 11 11 12 13 14 15 15 15 16 17 18 19 19 20 21 22 23 23 24 24 25 25 25 26 28 27 24 25 28 27 23 23 24 23 22 21 21 21 21
11 12 12 13 13 14 15 16 17 18 18 19 19 20 21 22 22 22 23 24 24 25 26 27 28 25 25 28 29 26 25 28 28 24 23 24 24 23 22 21 21 20
12 13 14 15 15 16 17 18 19 20 21 21 22 23 23 23 23 23 24 24 25 27 28 28 29 27 25 27 29 29 25 25 26 25 24 25 25 24 22 21 22 21
14 15 16 16 17 18 19 20 21 22 23 23 23 24 24 24 24 24 24 25 26 28 29 29 29 29 28 27 28 30 28 25 25 25 24 24 24 25 23 22 22 22
15 16 17 17 18 19 20 21 22 22 24 24 24 24 24 24 25 25 26 26 27 29 30 30 30 30 29 29 29 30 29 27 27 25 24 22 22 24 24 24 25 24
16 16 16 17 18 19 20 21 22 23 24 24 24 25 25 25 26 27 26 27 29 30 30 31 31 31 30 29 29 29 29 28 28 27 25 23 23 23 24 26 28 27
15 16 16 17 18 19 20 20 21 23 24 25 25 25 25 26 26 27 28 29 31 31 31 30 30 30 30 29 29 28 29 29 29 28 26 24 24 25 24 25 27 27
15 16 17 17 18 18 19 21 22 23 23 24 25 25 26 27 28 29 31 33 33 31 30 29 28 29 30 30 29 28 28 29 28 28 26 24 24 25 25 24 24 25
16 17 18 18 18 19 21 22 23 24 24 25 26 26 27 28 30 31 32 33 31 28 28 28 28 28 30 31 30 27 27 28 27 27 25 25 25 24 24 24 23 23
18 19 20 20 20 21 24 25 26 27 27 27 28 28 29 29 29 29 29 29 28 25 26 28 28 29 30 31 29 28 28 28 28 27 26 25 25 24 24 23 22 22
19 20 20 21 22 24 26 28 29 30 30 30 29 29 28 28 27 26 26 27 27 26 26 27 28 29 31 29 27 27 28 28 28 26 25 25 25 24 23 22 20 19
20 20 21 22 24 26 28 29 30 30 30 30 29 27 26 26 25 25 26 27 28 30 29 28 28 29 29 27 25 25 26 27 25 24 24 25 26 25 23 21 19 18
21 22 23 25 26 28 29 30 30 30 30 29 28 27 26 26 27 27 27 28 29 30 30 29 29 27 25 25 24 22 23 24 23 23 25 26 25 24 22 19 16 16
21 23 24 26 28 29 30 31 31 31 31 30 30 30 29 29 29 28 28 28 29 29 29 29 28 26 24 23 22 21 22 23 22 24 26 26 25 24 21 17 15 15
22 24 26 27 28 29 30 31 31 31 31 31 32 32 32 31 30 30 29 29 28 28 28 27 27 26 24 21 20 21 21 20 21 23 24 25 24 22 19 17 15 14
23 25 27 28 29 30 30 30 30 30 31 32 33 33 33 32 31 31 30 28 27 27 26 26 25 25 24 21 19 21 21 19 20 22 22 22 21 18 16 16 14 13
25 27 28 29 30 30 30 29 29 30 31 32 33 33 32 32 31 30 28 26 25 24 24 25 23 22 22 20 18 19 18 17 19 21 19 19 19 17 14 14 13 13
26 27 28 29 29 29 29 29 29 30 31 32 31 31 30 29 28 27 26 24 23 22 22 23 22 21 20 18 17 16 15 16 19 20 18 17 18 17 15 14 13 13
27 27 28 28 28 28 29 29 29 30 30 30 29 27 26 26 26 25 25 25 24 23 23 23 23 22 19 17 16 14 13 15 19 19 17 16 16 16 15 14 13 13
27 27 27 27 28 29 29 29 29 28 27 27 26 26 26 26 26 26 26 26 26 25 25 24 23 22 19 17 16 14 13 15 17 18 17 15 15 15 14 13 12 12
26 27 27 27 28 29 29 28 28 27 26 26 26 26 26 27 27 27 27 27 27 27 27 26 23 20 21 20 17 15 14 15 15 17 17 15 13 14 13 11 10 9
25 26 27 27 28 28 28 28 28 27 27 27 27 27 27 26 26 26 26 27 28 27 27 25 22 20 21 21 18 16 15 15 15 16 17 15 13 12 11 10 9 8
Wind_Direction
17 10 3 358 352 349 347 346 345 344 342 341 339 337 336 335 334 333 332 329 327 325 322 321 320 319 317 316 317 320 323 325 326 330 334 336 332 329 331 332 330 332
360 355 350 345 341 339 337 336 336 335 333 332 330 330 328 328 327 326 325 323 323 321 320 319 317 316 315 314 314 315 318 319 320 325 331 334 332 329 330 329 328 330
341 339 338 335 331 330 329 327 326 326 326 325 324 324 322 320 320 319 318 318 318 318 318 317 316 316 315 313 312 311 312 314 315 319 326 330 330 328 328 328 329 330
328 329 329 328 328 327 324 322 322 320 320 319 319 318 316 315 314 314 314 315 315 316 316 316 317 317 315 313 308 307 310 312 310 312 320 326 326 327 328 329 329 329
319 322 323 324 324 323 322 321 319 318 317 316 314 313 312 311 311 312 312 313 313 314 314 315 315 315 315 311 307 307 310 311 309 309 316 322 322 323 326 326 326 325
315 317 319 321 320 319 319 317 316 316 315 313 312 311 311 312 312 313 313 313 313 313 313 313 310 311 316 316 317 319 315 312 314 314 314 317 320 319 320 321 320 320
314 314 315 316 316 316 315 315 314 314 313 313 313 312 312 313 313 312 312 311 312 312 313 313 312 316 323 325 324 324 321 319 323 321 313 312 316 317 316 316 315 315
314 313 313 313 313 313 313 313 314 313 314 314 313 313 313 313 312 311 310 310 311 313 315 317 317 320 324 325 324 323 324 325 324 323 319 311 310 310 310 309 308 309
311 311 312 312 312 313 313 313 313 314 314 314 314 315 315 315 313 311 310 311 313 315 317 318 318 318 321 323 323 321 323 324 322 324 325 318 312 312 310 309 305 303
309 309 312 313 314 315 315 315 315 316 317 316 316 316 316 315 314 311 310 312 314 316 316 316 316 316 319 321 320 317 318 320 321 323 325 322 319 318 316 315 311 306
309 309 313 315 316 318 319 319 318 317 317 317 318 318 317 317 316 313 312 312 315 315 315 315 316 316 318 319 318 318 317 317 317 318 319 319 320 321 319 318 318 314
311 311 315 315 314 316 318 319 316 315 315 314 316 315 312 313 312 310 309 310 313 315 315 316 316 316 317 319 320 321 320 319 318 318 318 320 323 325 323 320 322 323
316 315 316 313 309 309 315 317 315 313 313 312 311 308 306 307 307 306 307 309 311 314 315 315 315 316 317 320 323 324 322 320 320 322 326 330 329 325 322 321 323 327
321 320 317 313 309 310 316 318 318 317 317 315 313 312 311 310 310 310 312 313 313 313 313 313 314 315 315 319 324 325 321 318 319 324 331 334 330 324 320 319 321 327
323 321 316 314 314 316 320 321 321 321 320 318 317 316 315 314 313 314 314 314 312 307 305 306 307 308 310 315 321 319 316 315 317 323 330 331 329 324 318 316 318 324
322 320 317 317 318 319 321 321 321 320 318 318 317 315 314 312 310 309 307 305 304 302 302 303 302 303 307 311 312 310 310 312 313 320 327 328 328 325 318 315 318 322
322 320 318 319 320 320 320 319 318 318 317 318 317 315 313 311 308 306 303 301 301 301 303 303 302 303 305 304 305 307 309 311 311 315 322 325 326 323 317 315 319 323
320 319 319 320 321 320 319 318 319 319 319 319 317 316 315 313 311 310 307 304 303 302 302 302 301 301 298 298 303 307 308 310 309 311 316 321 323 321 316 316 320 323
321 321 321 321 320 318 318 319 319 319 318 317 315 314 314 313 312 312 310 308 305 303 302 301 299 297 294 295 301 302 301 306 307 306 311 316 320 322 321 320 323 323
322 322 322 320 318 318 318 317 316 316 315 314 313 313 313 312 312 312 311 309 307 304 303 301 299 296 293 292 292 292 292 298 301 302 307 313 317 323 323 320 322 321
324 324 321 318 316 316 316 316 316 315 314 313 313 313 312 312 312 310 310 309 308 305 304 304 303 299 296 294 292 289 289 295 298 298 303 311 316 322 322 317 316 316
323 320 316 313 313 315 316 317 315 313 312 312 313 312 311 311 311 311 312 313 312 310 307 307 307 305 301 298 295 291 290 296 299 298 303 312 318 323 321 313 313 315
317 314 314 314 315 316 316 314 312 312 312 312 312 312 312 312 313 315 317 316 315 314 312 311 311 310 306 299 294 293 292 296 300 301 306 313 318 323 322 316 315 317
312 314 316 317 316 315 313 313 313 313 313 313 314 316 317 318 320 321 320 316 316 318 317 316 318 319 314 304 296 295 291 292 297 301 304 310 316 321 323 320 318 316
314 317 317 316 315 314 314 315 316 317 317 319 322 323 323 324 324 324 321 318 317 320 320 321 325 321 313 306 301 295 287 285 291 296 298 305 312 316 322 322 315 309
318 317 316 316 316 317 317 319 321 323 325 327 328 327 327 327 325 324 322 320 321 323 322 322 322 312 303 301 299 292 282 276 279 287 293 299 304 310 320 322 312 303